Location: Balmoral
(33.0667°S, 151.5833°E)
Time: 03:43:18
(UTC+00:00)

Okean 3 - Pass Details

Date: 18 September 2020
Orbit: 575 x 602 km, 82.5° (Epoch: 23 October)

Event Time Altitude Azimuth Distance (km) Brightness Sun altitude
Rises 19:12:49 0° 182° (S) 2,852 7.0 -8.1°
Reaches altitude 10° 19:15:03 10° 178° (S) 1,947 6.2 -7.6°
Maximum altitude 19:19:19 60° 98° (E) 693 4.2 -6.7°
Drops below altitude 10° 19:23:32 10° 17° (NNE) 1,935 6.3 -5.8°
Sets 19:25:46 0° 13° (NNE) 2,832 7.1 -5.4°
